[[{"header":{"parameterUnit":"m.s-1","parameterCategory":1,"la1":30.2991,"la2":30.254,"lo1":-89.0895,"lo2":-89.0444,"dy":0.0017,"dx":0.0017,"nx":28,"ny":28,"refTime":"2023-09-22T03:00:00:Z","depth":0,"parameterNumber":2,"parameterNumberName":"U-component_of_WINDS"},"data":[0,0,0,0,0,0,0,0,0,0,0,0,0,0,0,0,0,0,0,0,0,0,0,0,0,0,0,0,0,0,0,0,0,0,0,0,0,0,0,0,0,0,0,0,0,0,0,0,0,0,0,0,0,0,0,0,0,0,-1.564,-1.564,0,-1.5684,-1.5684,-1.5685,-1.5612,-1.561,-1.5607,-1.5605,-1.565,-1.5653,-1.5657,0,0,0,0,0,0,0,0,0,0,0,0,0,-1.5491,-1.5494,-1.5639,-1.564,-1.5641,-1.5684,-1.5685,-1.5685,-1.5613,-1.561,-1.5607,-1.5604,-1.5649,-1.5653,-1.5657,0,0,0,0,0,0,0,0,0,0,0,0,0,-1.5548,-1.5495,-1.5639,-1.561,-1.5607,-1.5684,-1.5685,-1.5685,-1.5613,-1.561,-1.5606,-1.5602,-1.5647,-1.5653,-1.5658,-1.5765,0,0,-1.5674,-1.5676,0,0,0,0,0,0,0,0,-1.5545,-1.5553,-1.5614,-1.5612,-1.561,-1.5639,-1.5649,-1.5712,-1.5614,-1.5611,-1.5605,-1.5601,-1.5649,-1.5654,-1.5671,-1.5767,-1.5769,-1.5674,-1.5678,-1.568,-1.5681,0,0,0,0,0,0,0,-1.5541,-1.5551,-1.5657,-1.5614,-1.5612,-1.5594,-1.5598,-1.566,-1.5651,-1.5611,-1.5606,-1.5612,-1.5647,-1.5666,-1.5671,-1.577,-1.5674,-1.5679,-1.5682,-1.5684,-1.5956,-1.596,0,0,0,0,0,0,-1.5541,-1.5548,-1.5656,-1.5658,-1.5567,-1.56,-1.5604,-1.5633,-1.565,-1.5649,-1.5615,-1.5609,-1.5659,-1.5665,-1.5672,-1.5799,-1.568,-1.5685,-1.5688,-1.5952,-1.5957,-1.5962,0,0,0,0,0,0,-1.5538,-1.5551,-1.5654,-1.5602,-1.5614,-1.5606,-1.5639,-1.5636,-1.5654,-1.5653,-1.5651,-1.5636,-1.5656,-1.5665,-1.5743,-1.58,-1.5687,-1.5692,-1.5947,-1.5954,-1.5959,-1.6053,0,0,0,0,0,0,-1.5534,-1.555,-1.5591,-1.5603,-1.5617,-1.5724,-1.5643,-1.564,-1.5664,-1.5655,-1.5672,-1.5671,-1.5654,-1.5735,-1.5748,-1.5805,-1.5696,-1.5942,-1.595,-1.5957,-1.6045,-1.6062,-1.6076,0,0,0,0,0,-1.5529,-1.5616,-1.5594,-1.5607,-1.5668,-1.5727,-1.5735,-1.5713,-1.5668,-1.5709,-1.5708,-1.567,-1.5791,-1.5744,-1.5757,-1.5817,-1.5939,-1.5948,-1.5957,-1.6038,-1.6058,-1.6076,0,0,0,0,0,0,-1.561,-1.5617,-1.5592,-1.5686,-1.5706,-1.5715,-1.5765,-1.5736,-1.5769,-1.576,-1.5732,-1.5737,-1.582,-1.5826,-1.5773,-1.5921,-1.5857,-1.587,-1.5914,-1.5934,-1.5949,-1.5946,-1.57,0,0,0,0,0,-1.5639,-1.5687,-1.569,-1.5772,-1.5784,-1.5773,-1.5798,-1.578,-1.58,-1.5809,-1.5813,-1.5834,-1.5877,-1.5906,-1.5945,-1.6046,-1.6048,-1.6093,-1.6109,-1.6122,-1.6132,-1.6186,-1.6206,-1.5992,-1.5992,-1.5991,0,0,-1.5698,-1.5708,-1.574,-1.5789,-1.5802,-1.5853,-1.5781,-1.5837,-1.5874,-1.5817,-1.589,-1.5895,-1.5916,-1.6006,-1.6046,-1.6014,-1.6192,-1.6133,-1.6143,-1.6147,-1.6198,-1.6218,-1.6236,-1.5998,-1.5997,-1.5996,0,0,-1.5833,-1.5845,-1.5915,-1.5931,-1.5953,-1.5945,-1.5962,-1.5975,-1.5976,-1.605,-1.6008,-1.6051,-1.6126,-1.6143,-1.6161,-1.6303,-1.6269,-1.6317,-1.6398,-1.645,-1.6467,-1.6482,-1.6533,-1.6551,-1.6327,-1.6328,-1.6328,0,-1.5905,-1.5979,-1.5955,-1.6014,-1.6036,-1.5988,-1.6058,-1.6074,-1.6108,-1.6125,-1.6089,-1.6181,-1.6192,-1.6285,-1.6319,-1.6336,-1.6354,-1.6314,-1.6467,-1.6482,-1.6495,-1.6543,-1.6562,-1.6333,-1.6333,-1.6332,-1.6332,0,-1.6065,-1.6118,-1.6171,-1.6206,-1.6234,-1.6299,-1.6284,-1.6316,-1.6296,-1.6292,-1.6368,-1.6379,-1.642,-1.6441,-1.6421,-1.6531,-1.6511,-1.6471,-1.6406,-1.6521,-1.6566,-1.6584,-1.6341,-1.6339,-1.6338,-1.6336,0,0,-1.6252,-1.6273,-1.6293,-1.6308,-1.6329,-1.6369,-1.6431,-1.6471,-1.6499,-1.6524,-1.6576,-1.664,-1.6603,-1.6625,-1.6606,-1.6653,-1.6764,-1.6607,-1.6607,-1.6636,-1.6886,-1.6915,-1.6937,-1.6742,-1.6746,-1.6748,-1.6884,0,-1.6386,-1.6494,-1.6474,-1.6579,-1.6627,-1.6582,-1.6636,-1.6655,-1.6653,-1.6693,-1.6691,-1.6737,-1.6686,-1.6698,-1.6742,-1.6742,-1.6814,-1.6732,-1.6789,-1.6792,-1.6785,-1.696,-1.6991,-1.7119,-1.6901,-1.6904,-1.6906,0,-1.6556,-1.6588,-1.6698,-1.6712,-1.6731,-1.678,-1.6816,-1.6855,-1.6875,-1.6871,-1.6895,-1.6868,-1.693,-1.6865,-1.695,-1.6894,-1.6917,-1.692,-1.6925,-1.6929,-1.6856,-1.6969,-1.7159,-1.7179,-1.6934,-1.6931,-1.6929,0,-1.6681,-1.6751,-1.6826,-1.684,-1.6859,-1.6894,-1.6904,-1.692,-1.6946,-1.6977,-1.6993,-1.7031,-1.7051,-1.7081,-1.7066,-1.7019,-1.7153,-1.7087,-1.7151,-1.7152,-1.7181,-1.7179,-1.7377,-1.7196,-1.7196,-1.7196,-1.7195,0,-1.6832,-1.6901,-1.6882,-1.6929,-1.7004,-1.6982,-1.7057,-1.7061,-1.7077,-1.7122,-1.7086,-1.7129,-1.7106,-1.7148,-1.7136,-1.7208,-1.7218,-1.7216,-1.7212,-1.7219,-1.7219,-1.7233,-1.7224,-1.7201,-1.72,-1.7199,-1.7198,0,-1.6984,-1.6974,-1.7053,-1.7064,-1.7068,-1.7124,-1.7133,-1.7176,-1.7172,-1.723,-1.7243,-1.7236,-1.7284,-1.7271,-1.7323,-1.7315,-1.7406,-1.7391,-1.7399,-1.7395,-1.746,-1.7454,-1.7674,-1.7701,-1.7503,-1.7505,-1.7507,0,-1.7081,-1.7133,-1.715,-1.7178,-1.719,-1.7236,-1.7262,-1.7242,-1.727,-1.7298,-1.7338,-1.7382,-1.7416,-1.7494,-1.7494,-1.7533,-1.7519,-1.7593,-1.7524,-1.753,-1.7519,-1.7516,-1.7521,-1.7606,-1.7609,-1.7611,-1.7612,0,-1.7254,-1.7246,-1.7285,-1.7324,-1.7356,-1.7385,-1.741,-1.7435,-1.7416,-1.745,-1.7499,-1.7526,-1.7579,-1.7623,-1.7659,-1.7668,-1.7638,-1.7634,-1.7651,-1.7658,-1.7661,-1.766,-1.7436,-1.7629,-1.7627,-1.7626,-1.7625,-1.7624,-1.738,-1.7425,-1.7444,-1.7489,-1.7506,-1.753,-1.7571,-1.7573,-1.7613,-1.7655,-1.764,-1.7696,-1.7715,-1.776,-1.7774,-1.7817,-1.7788,-1.7813,-1.7819,-1.7825,-1.7833,-1.7655,-1.7823,-1.7823,-1.7822,-1.7822,-1.7822,0,-1.7551,-1.7561,-1.7603,-1.764,-1.7675,-1.7644,-1.767,-1.7702,-1.7751,-1.7772,-1.7807,-1.7863,-1.7906,-1.7909,-1.795,-1.7983,-1.797,-1.7995,-1.7991,-1.7994,-1.7857,-1.7838,-1.8005,-1.8004,-1.8004,-1.8004,-1.8004,-1.8004,-1.7644,-1.7717,-1.7713,-1.7794,-1.7803,-1.7858,-1.7876,-1.7898,-1.7914,-1.7979,-1.8015,-1.8017,-1.8031,-1.8072,-1.811,-1.811,-1.8126,-1.8156,-1.8151,-1.8022,-1.8004,-1.7986,-1.7968,-1.816,-1.816,-1.8284,-1.8285,-1.8286]},{"header":{"parameterUnit":"m.s-1","parameterCategory":1,"la1":30.2991,"la2":30.254,"lo1":-89.0895,"lo2":-89.0444,"dy":0.0017,"dx":0.0017,"nx":28,"ny":28,"refTime":"2023-09-22T03:00:00:Z","depth":0,"parameterNumber":3,"parameterNumberName":"V-component_of_WINDS"},"data":[0,0,0,0,0,0,0,0,0,0,0,0,0,0,0,0,0,0,0,0,0,0,0,0,0,0,0,0,0,0,0,0,0,0,0,0,0,0,0,0,0,0,0,0,0,0,0,0,0,0,0,0,0,0,0,0,0,0,-2.3355,-2.3355,0,-2.3359,-2.3359,-2.3359,-2.3337,-2.3337,-2.3336,-2.3335,-2.3339,-2.3339,-2.334,0,0,0,0,0,0,0,0,0,0,0,0,0,-2.3326,-2.3326,-2.3355,-2.3355,-2.3355,-2.3359,-2.3359,-2.3359,-2.3337,-2.3337,-2.3336,-2.3335,-2.3338,-2.3339,-2.334,0,0,0,0,0,0,0,0,0,0,0,0,0,-2.3335,-2.3327,-2.3355,-2.3345,-2.3344,-2.3359,-2.3359,-2.3359,-2.3338,-2.3337,-2.3336,-2.3335,-2.3338,-2.3339,-2.334,-2.3365,0,0,-2.3343,-2.3344,0,0,0,0,0,0,0,0,-2.3334,-2.3336,-2.3346,-2.3345,-2.3344,-2.3347,-2.335,-2.3361,-2.3338,-2.334,-2.3335,-2.3334,-2.3342,-2.3343,-2.3345,-2.3365,-2.3365,-2.3343,-2.3344,-2.3344,-2.3345,0,0,0,0,0,0,0,-2.3334,-2.3336,-2.3356,-2.3346,-2.3345,-2.3339,-2.3339,-2.3352,-2.3346,-2.334,-2.3338,-2.3339,-2.3341,-2.3344,-2.3345,-2.3365,-2.3343,-2.3344,-2.3345,-2.3345,-2.3403,-2.3404,0,0,0,0,0,0,-2.3335,-2.3335,-2.3356,-2.3356,-2.3337,-2.334,-2.3341,-2.3347,-2.3346,-2.3345,-2.334,-2.3338,-2.3343,-2.3344,-2.3345,-2.3373,-2.3344,-2.3345,-2.3346,-2.3402,-2.3403,-2.3404,0,0,0,0,0,0,-2.3334,-2.3337,-2.3356,-2.3345,-2.3347,-2.3342,-2.3349,-2.3347,-2.335,-2.3346,-2.3345,-2.3344,-2.3343,-2.3344,-2.336,-2.3372,-2.3346,-2.3346,-2.3401,-2.3402,-2.3403,-2.3428,0,0,0,0,0,0,-2.3334,-2.3337,-2.3347,-2.3346,-2.3348,-2.3371,-2.335,-2.3348,-2.3352,-2.335,-2.335,-2.3349,-2.3342,-2.3358,-2.3361,-2.3373,-2.3347,-2.34,-2.3401,-2.3403,-2.3426,-2.343,-2.3434,0,0,0,0,0,-2.3333,-2.3354,-2.3347,-2.335,-2.336,-2.3372,-2.3373,-2.3365,-2.3354,-2.3363,-2.336,-2.3349,-2.3371,-2.336,-2.3363,-2.3376,-2.3399,-2.3401,-2.3403,-2.3425,-2.343,-2.3434,0,0,0,0,0,0,-2.3357,-2.3354,-2.3346,-2.3368,-2.337,-2.3368,-2.338,-2.3371,-2.3376,-2.3374,-2.3363,-2.3363,-2.338,-2.338,-2.3368,-2.3398,-2.3383,-2.3385,-2.3398,-2.3403,-2.3407,-2.3406,-2.3348,0,0,0,0,0,-2.3364,-2.3374,-2.3371,-2.339,-2.3392,-2.3386,-2.339,-2.3384,-2.3386,-2.3386,-2.3384,-2.3386,-2.3393,-2.3398,-2.3405,-2.3426,-2.3425,-2.3436,-2.344,-2.3443,-2.3445,-2.3455,-2.346,-2.3411,-2.3411,-2.3411,0,0,-2.3381,-2.338,-2.3387,-2.3395,-2.3396,-2.3406,-2.3387,-2.3398,-2.3405,-2.3388,-2.3402,-2.3401,-2.3402,-2.342,-2.3428,-2.342,-2.3459,-2.3446,-2.3449,-2.3449,-2.3458,-2.3462,-2.3466,-2.3412,-2.3412,-2.3412,0,0,-2.3415,-2.3416,-2.3432,-2.3433,-2.3434,-2.343,-2.3433,-2.3432,-2.3431,-2.3445,-2.3432,-2.344,-2.3453,-2.3453,-2.3455,-2.3488,-2.3478,-2.3491,-2.351,-2.352,-2.3523,-2.3527,-2.3537,-2.3541,-2.3493,-2.3493,-2.3493,0,-2.3435,-2.3449,-2.3441,-2.3452,-2.3456,-2.3441,-2.3455,-2.3457,-2.3461,-2.3463,-2.3454,-2.3468,-2.3468,-2.3486,-2.3493,-2.3496,-2.3499,-2.349,-2.3524,-2.3527,-2.353,-2.3539,-2.3544,-2.3495,-2.3494,-2.3494,-2.3494,0,-2.3473,-2.3483,-2.3495,-2.3498,-2.3503,-2.3516,-2.3509,-2.3514,-2.3507,-2.3503,-2.3517,-2.3516,-2.3521,-2.3525,-2.3519,-2.3541,-2.3536,-2.3526,-2.3509,-2.3536,-2.3545,-2.3549,-2.3497,-2.3496,-2.3496,-2.3495,0,0,-2.3523,-2.352,-2.3525,-2.3525,-2.3525,-2.3533,-2.3544,-2.355,-2.3554,-2.3556,-2.3565,-2.3576,-2.3566,-2.3568,-2.3561,-2.357,-2.3594,-2.3558,-2.3558,-2.3563,-2.3617,-2.3624,-2.3628,-2.3587,-2.3588,-2.3588,-2.3616,0,-2.3555,-2.3576,-2.3568,-2.3589,-2.3597,-2.3582,-2.3592,-2.3593,-2.3589,-2.3595,-2.3591,-2.3598,-2.3585,-2.3586,-2.3594,-2.3589,-2.3604,-2.3587,-2.3594,-2.3594,-2.3593,-2.3633,-2.3641,-2.3668,-2.362,-2.362,-2.3621,0,-2.3596,-2.36,-2.3621,-2.3618,-2.3621,-2.3631,-2.3634,-2.364,-2.364,-2.3636,-2.3638,-2.3629,-2.3639,-2.3623,-2.3637,-2.3625,-2.3628,-2.3626,-2.3626,-2.3626,-2.3609,-2.3633,-2.3676,-2.368,-2.3626,-2.3626,-2.3626,0,-2.3629,-2.3639,-2.3653,-2.3654,-2.3651,-2.3658,-2.3657,-2.3655,-2.3658,-2.3661,-2.3662,-2.3666,-2.3668,-2.3671,-2.3662,-2.3652,-2.3676,-2.366,-2.3672,-2.3673,-2.3678,-2.3677,-2.3721,-2.3681,-2.3681,-2.3681,-2.3681,0,-2.3665,-2.3679,-2.3667,-2.3676,-2.369,-2.368,-2.3694,-2.3691,-2.369,-2.3696,-2.3684,-2.3691,-2.368,-2.3685,-2.3678,-2.3689,-2.3691,-2.3687,-2.3685,-2.3688,-2.3688,-2.3689,-2.3686,-2.3682,-2.3682,-2.3681,-2.3681,0,-2.3704,-2.3697,-2.3711,-2.3707,-2.3706,-2.3716,-2.3712,-2.3719,-2.3714,-2.3723,-2.3724,-2.3716,-2.3721,-2.3713,-2.3718,-2.3713,-2.3728,-2.3724,-2.3728,-2.3727,-2.3739,-2.3738,-2.3784,-2.3789,-2.3747,-2.3747,-2.3747,0,-2.3728,-2.3738,-2.3734,-2.3737,-2.3737,-2.3743,-2.3746,-2.3736,-2.3739,-2.3738,-2.3745,-2.3749,-2.3752,-2.3761,-2.3755,-2.3758,-2.3753,-2.3769,-2.3753,-2.3755,-2.3752,-2.3751,-2.3751,-2.3772,-2.3772,-2.3773,-2.3773,0,-2.377,-2.3765,-2.377,-2.3772,-2.3776,-2.3778,-2.3778,-2.3782,-2.3771,-2.3775,-2.378,-2.3782,-2.3786,-2.379,-2.3791,-2.3789,-2.3779,-2.3778,-2.3781,-2.3783,-2.3785,-2.3783,-2.3736,-2.3777,-2.3776,-2.3776,-2.3776,-2.3776,-2.3801,-2.3808,-2.3806,-2.3811,-2.381,-2.3811,-2.3817,-2.3812,-2.3816,-2.3818,-2.3812,-2.3818,-2.3816,-2.3816,-2.3816,-2.382,-2.3812,-2.3817,-2.3818,-2.3819,-2.382,-2.3785,-2.382,-2.382,-2.382,-2.382,-2.382,0,-2.3841,-2.3838,-2.3843,-2.3844,-2.3847,-2.3837,-2.3837,-2.3841,-2.3846,-2.3845,-2.3848,-2.3852,-2.3856,-2.385,-2.3852,-2.3856,-2.3851,-2.3857,-2.3856,-2.3855,-2.3827,-2.3824,-2.3861,-2.3861,-2.3861,-2.3861,-2.3861,-2.3861,-2.3862,-2.3873,-2.3868,-2.3879,-2.3876,-2.3882,-2.3883,-2.3883,-2.3881,-2.3887,-2.389,-2.3886,-2.3882,-2.3884,-2.3886,-2.3884,-2.3885,-2.3892,-2.3888,-2.3862,-2.3858,-2.3854,-2.3851,-2.3892,-2.3892,-2.3916,-2.3916,-2.3916]}]]